Tracking 19224 objects as of 22-Jul-2018
HD Live streaming from Space Station
objects crossing your sky now

FENGYUN 1C DEB

Track FENGYUN 1C DEB now!
10-day predictions


NORAD ID: 29890
Int'l Code: 1999-025GL
Perigee: 840.8 km
Apogee: 871.4 km
Inclination: 99.5 °
Period: 101.9 minutes
Semi major axis: 7227 km
RCS: 0.052 m2 (small)
Launch date: May 10, 1999
Source: People's Republic of China (PRC)
Launch site: Taiyaun Space Center, China (TSC)

Note: This is SATELLITE DEBRIS
aabbcc
Your satellite tracking list
Your tracking list is empty




NASA's NSSDC Master Catalog

Two Line Element Set (TLE):
1 29890U 99025GL  18202.44362079 +.00000331 +00000-0 +20310-3 0  9997
2 29890 099.4546 112.7822 0021138 061.8708 298.4595 14.13050120592202
Source of the keplerian elements: AFSPC